Location: *
(49.5667°N, 1.3667°W)
Time: 01:43:55
(UTC+00:00)

Cosmos 2263 Rocket - Pass Details

Date: 20 September 2019
Orbit: 824 x 848 km, 71.0° (Epoch: 18 October)

Event Time Altitude Azimuth Distance (km) Brightness Sun altitude
Exits shadow 22:33:38 23° 24° (NNE) 1,723 4.1 -36.3°
Drops below altitude 10° 22:35:42 10° 27° (NNE) 2,479 5.0 -36.4°
Sets 22:38:10 0° 29° (NNE) 3,415 5.8 -36.6°
